Location: Dehesa de la Cepeda
(40.6574°N, 4.3013°W)
Time: 10:22:13
(UTC+00:00)

Vanguard 2 Rocket - Pass Details

Date: 31 October 2021
Orbit: 555 x 3324 km, 32.9° (Epoch: 08 December)

Event Time Altitude Azimuth Distance (km) Brightness Sun altitude
Exits shadow 04:24:19 28° 232° (SW) 4,411 9.9 -27.4°
Maximum altitude 04:34:21 56° 170° (S) 2,723 9.2 -25.5°
Drops below altitude 10° 04:45:10 10° 96° (E) 3,924 11.2 -23.5°
Sets 04:47:46 0° 91° (E) 4,609 12.0 -23.0°
